GW3390 Weather Reports


time (UTC)temp
F
wind
direction
speed
knots
gust
knots
rain 1hr
in
rain 24hr
in
rain mn
in
humidity
%
barometer
mb
20260906114059 70 0 0.0 0.0 0.00 0.57 0.00 94 1012.8
20260906113558 70 0 0.0 0.0 0.00 0.57 0.00 94 1012.7
20260906113100 70 0 0.0 0.0 0.00 0.57 0.00 94 1012.6
20260906112559 70 0 0.0 0.0 0.00 0.57 0.00 93 1012.4
20260906112059 70 0 0.0 0.0 0.00 0.57 0.00 94 1012.4
20260906111626 70 0 0.0 0.0 0.00 0.57 0.00 94 1012.5
20260906111103 70 0 0.0 0.0 0.00 0.57 0.00 93 1012.4
20260906110604 70 0 0.0 0.0 0.00 0.57 0.00 93 1012.3
20260906105559 70 0 0.0 0.0 0.00 0.57 0.00 93 1012.3
20260906105102 70 0 0.0 0.9 0.00 0.57 0.00 93 1012.4
20260906104606 70 0 0.0 0.9 0.00 0.57 0.00 93 1012.4
20260906104059 71 0 0.0 0.0 0.00 0.57 0.00 93 1012.4
20260906103559 71 0 0.0 0.0 0.00 0.57 0.00 92 1012.3
20260906103101 71 0 0.0 0.0 0.00 0.57 0.00 92 1012.4
20260906102559 71 0 0.0 0.0 0.00 0.57 0.00 92 1012.3
20260906102059 71 0 0.0 0.0 0.00 0.57 0.00 92 1012.3
20260906101600 71 0 0.0 0.0 0.00 0.57 0.00 92 1012.3
20260906101101 71 0 0.0 1.7 0.00 0.57 0.00 92 1012.2
20260906100559 71 0 0.0 4.3 0.00 0.57 0.00 92 1012.4
20260906100103 71 175 0.9 4.3 0.00 0.57 0.00 91 1012.3
20260906095559 71 0 0.9 2.6 0.00 0.57 0.00 91 1012.4
20260906095100 71 0 0.0 0.9 0.00 0.57 0.00 91 1012.4
20260906094558 71 0 0.0 0.9 0.00 0.57 0.00 90 1012.3
20260906094100 71 0 0.0 1.7 0.00 0.57 0.00 90 1012.2
20260906093559 72 0 0.0 2.6 0.00 0.57 0.00 90 1012.3
20260906093108 72 191 0.9 2.6 0.00 0.57 0.00 90 1012.2
20260906092600 72 0 0.0 3.5 0.00 0.57 0.00 89 1012.2
20260906092102 72 0 0.0 3.5 0.00 0.57 0.00 89 1012.3
20260906091604 72 0 0.0 0.9 0.00 0.57 0.00 89 1012.2
20260906091059 72 0 0.0 1.7 0.00 0.57 0.00 89 1012.3
20260906090600 72 0 0.0 4.3 0.00 0.57 0.00 89 1012.2
20260906090115 72 0 0.9 7.8 0.00 0.57 0.00 88 1012.3
20260906085559 72 200 1.7 7.8 0.00 0.57 0.00 88 1012.1
20260906085059 72 0 0.0 4.3 0.00 0.57 0.00 88 1012.1
20260906084613 73 0 0.9 3.5 0.00 0.57 0.00 87 1012.2
20260906084058 73 315 0.0 5.2 0.00 0.57 0.00 87 1012.2
20260906083600 73 0 0.9 6.1 0.00 0.57 0.00 87 1012.1
20260906083106 73 157 1.7 6.1 0.00 0.57 0.00 87 1012.0
20260906082559 73 146 1.7 5.2 0.00 0.57 0.00 87 1012.1
20260906082100 73 196 0.9 5.2 0.00 0.57 0.00 86 1012.0
20260906081621 73 191 0.0 5.2 0.00 0.57 0.00 86 1012.0
20260906081059 73 90 0.9 4.3 0.00 0.57 0.00 85 1011.9
20260906080600 73 217 0.9 7.0 0.00 0.57 0.00 85 1011.9
20260906080103 73 194 1.7 7.8 0.00 0.57 0.00 85 1011.8
20260906075559 74 144 3.5 7.8 0.00 0.57 0.00 85 1012.0
20260906075102 74 189 3.5 9.6 0.00 0.57 0.00 84 1012.0
20260906074612 74 220 3.5 12.2 0.00 0.57 0.00 84 1012.0
20260906074059 74 183 4.3 12.2 0.00 0.57 0.00 84 1012.0
20260906073602 74 205 6.1 11.3 0.00 0.57 0.00 84 1012.0
20260906073110 74 165 3.5 9.6 0.00 0.57 0.00 85 1012.0
20260906072601 74 234 3.5 9.6 0.00 0.57 0.00 85 1012.0
20260906072103 74 173 3.5 9.6 0.00 0.57 0.00 87 1012.1
20260906071600 74 165 2.6 7.0 0.00 0.57 0.00 88 1012.2
20260906071059 73 144 3.5 7.8 0.00 0.57 0.00 88 1012.2
20260906070600 73 159 2.6 7.8 0.00 0.57 0.00 88 1012.2
20260906070134 73 187 3.5 7.8 0.00 0.57 0.00 87 1012.4
20260906065602 73 174 2.6 7.8 0.00 0.57 0.00 87 1012.4
20260906065100 73 224 5.2 7.8 0.00 0.57 0.00 87 1012.4
20260906064602 73 169 4.3 7.8 0.00 0.57 0.00 87 1012.3
20260906064059 73 179 3.5 7.8 0.00 0.57 0.00 87 1012.2
20260906063559 73 187 3.5 7.0 0.00 0.57 0.00 87 1012.4
20260906063104 73 176 3.5 7.0 0.00 0.57 0.00 88 1012.5
20260906062600 74 170 1.7 5.2 0.00 0.57 0.00 88 1012.5
20260906062100 74 164 0.0 5.2 0.00 0.57 0.00 88 1012.7
20260906061635 74 192 1.7 7.8 0.00 0.57 0.00 88 1012.7
20260906061102 74 171 3.5 7.8 0.00 0.57 0.00 88 1012.7
20260906060602 74 207 3.5 7.8 0.00 0.57 0.00 88 1013.1
20260906060100 74 217 3.5 7.8 0.00 0.57 0.00 89 1013.0
20260906055603 74 190 3.5 7.8 0.00 0.57 0.00 90 1013.0
20260906055059 74 199 1.7 5.2 0.00 0.57 0.00 91 1013.2
20260906054600 74 134 0.0 4.3 0.00 0.57 0.00 91 1013.3
20260906054059 74 0 1.7 6.1 0.00 0.57 0.00 91 1013.5
20260906053600 74 258 1.7 6.1 0.00 0.57 0.00 91 1013.5
20260906053101 74 202 2.6 5.2 0.00 0.57 0.00 91 1013.5
20260906052600 74 183 2.6 4.3 0.00 0.57 0.00 91 1013.3
20260906052100 74 167 0.0 4.3 0.00 0.57 0.00 91 1013.3
20260906051601 74 193 1.7 4.3 0.00 0.57 0.00 91 1013.3
20260906051059 74 0 0.0 3.5 0.00 0.57 0.00 92 1013.3
20260906050559 74 163 1.7 4.3 0.00 0.57 0.00 92 1013.3
20260906050115 74 154 1.7 4.3 0.00 0.57 0.00 92 1013.3
20260906045600 74 117 0.0 4.3 0.00 0.57 0.57 91 1013.5
20260906045059 74 51 0.0 7.0 0.00 0.57 0.57 91 1013.7
20260906044603 74 51 3.5 12.2 0.01 0.57 0.57 91 1013.8
20260906044058 73 0 4.3 12.2 0.01 0.57 0.57 92 1013.3
20260906043600 73 50 6.1 12.2 0.04 0.57 0.57 90 1014.0
20260906043111 73 30 0.9 5.2 0.11 0.57 0.57 89 1013.1
20260906042559 73 167 3.5 5.2 0.20 0.57 0.57 88 1012.6
20260906042103 74 0 0.0 4.3 0.23 0.57 0.57 87 1012.9
20260906041600 74 46 1.7 5.2 0.24 0.57 0.57 88 1013.1
20260906041102 74 117 2.6 5.2 0.24 0.57 0.57 86 1012.5
20260906040603 75 139 0.9 4.3 0.24 0.57 0.57 88 1013.0
20260906040116 75 225 0.0 7.0 0.24 0.57 0.57 89 1012.8
20260906035600 75 155 2.6 7.0 0.24 0.57 0.57 90 1012.8
20260906035059 75 124 3.5 8.7 0.24 0.57 0.57 92 1013.1
20260906034619 75 0 2.6 11.3 0.23 0.56 0.56 91 1013.3
20260906034059 75 24 2.6 17.4 0.23 0.56 0.56 91 1013.4
20260906033600 75 40 6.1 17.4 0.20 0.52 0.52 91 1013.6
20260906033102 74 39 4.3 10.4 0.14 0.46 0.46 90 1013.8
20260906032602 74 16 4.3 13.9 0.05 0.37 0.37 91 1013.7
20260906032102 73 355 4.3 13.9 0.02 0.34 0.34 92 1013.4
20260906031607 73 355 2.6 7.8 0.03 0.33 0.33 94 1013.1
20260906031059 73 0 0.0 2.6 0.08 0.33 0.33 93 1012.1
20260906030559 73 0 0.9 2.6 0.10 0.33 0.33 93 1012.1
20260906030108 73 0 0.0 2.6 0.10 0.33 0.33 92 1012.1
20260906025559 73 0 0.0 3.5 0.10 0.33 0.33 92 1012.0
20260906025059 73 179 0.9 3.5 0.10 0.33 0.33 92 1012.1
20260906024558 73 179 1.7 3.5 0.10 0.33 0.33 92 1012.0
20260906024103 73 167 0.9 3.5 0.10 0.33 0.33 92 1012.0
20260906023600 73 165 1.7 3.5 0.10 0.33 0.33 92 1011.7
20260906023130 73 123 0.0 4.3 0.09 0.32 0.32 91 1011.8
20260906022559 73 145 0.9 4.3 0.09 0.32 0.32 90 1012.0
20260906022101 73 65 0.9 4.3 0.09 0.32 0.32 90 1012.2
20260906021558 73 210 0.0 6.1 0.07 0.30 0.30 89 1012.1
20260906021100 73 360 3.5 6.1 0.02 0.25 0.25 88 1012.3
20260906020559 72 9 0.9 2.6 0.00 0.23 0.23 91 1012.1
20260906020108 73 53 0.9 1.7 0.00 0.23 0.23 92 1011.8
20260906015559 73 53 0.0 0.9 0.00 0.23 0.23 91 1011.5
20260906015059 73 0 0.0 1.7 0.00 0.23 0.23 91 1011.3
20260906014626 73 190 0.0 3.5 0.00 0.23 0.23 91 1011.3
20260906014059 72 190 0.9 3.5 0.00 0.23 0.23 89 1011.3
20260906013559 72 196 0.9 3.5 0.00 0.23 0.23 90 1011.3
20260906013101 73 148 0.0 7.0 0.00 0.23 0.23 92 1011.3
20260906012601 72 43 0.9 7.0 0.00 0.23 0.23 91 1011.4
20260906012059 73 198 0.0 6.1 0.00 0.23 0.23 92 1011.5
20260906011603 72 0 0.0 0.9 0.00 0.23 0.23 92 1011.4
20260906011100 72 0 0.0 1.7 0.00 0.23 0.23 91 1011.3
20260906010559 72 0 0.0 4.3 0.05 0.23 0.23 91 1011.2
20260906005558 72 177 0.9 4.3 0.23 0.23 0.23 90 1010.9
20260906005101 72 101 0.0 1.7 0.23 0.23 0.23 90 1010.9
20260906004613 72 0 0.0 1.7 0.23 0.23 0.23 88 1011.0
20260906004102 72 0 0.0 1.7 0.23 0.23 0.23 89 1011.1
20260906003559 73 101 0.0 1.7 0.23 0.23 0.23 87 1011.2
20260906003104 73 101 0.0 3.5 0.23 0.23 0.23 85 1011.2
20260906002559 74 0 1.7 6.1 0.23 0.23 0.23 84 1011.4
20260906002059 74 32 0.9 7.8 0.23 0.23 0.23 82 1011.5
20260906001603 75 25 2.6 7.8 0.23 0.23 0.23 81 1011.5
20260906001059 76 322 2.6 9.6 0.23 0.23 0.23 78 1011.6
20260906000559 78 107 2.6 35.6 0.18 0.18 0.18 73 1011.8
20260906000111 79 109 7.8 35.6 0.06 0.06 0.06 72 1011.6
20260905235559 83 67 7.8 17.4 0.00 0.00 0.00 67 1012.2
20260905235101 84 17 8.7 20.9 0.00 0.00 0.00 56 1012.9
20260905234605 85 27 7.8 20.9 0.00 0.00 0.00 59 1012.1
20260905234059 88 36 9.6 17.4 0.00 0.00 0.00 58 1011.8
20260905233602 90 47 7.8 13.0 0.00 0.00 0.00 58 1011.7
20260905233104 91 12 0.9 8.7 0.00 0.00 0.00 62 1011.3
20260905232559 91 159 2.6 8.7 0.00 0.00 0.00 61 1010.8
20260905232059 90 157 0.9 4.3 0.00 0.00 0.00 61 1010.9
20260905231603 91 0 0.0 1.7 0.00 0.00 0.00 63 1010.7
20260905231058 91 0 0.0 0.9 0.00 0.00 0.00 64 1010.6
20260905230600 91 0 0.0 0.9 0.00 0.00 0.00 59 1010.6
20260905230108 92 0 0.0 1.7 0.00 0.00 0.00 60 1010.6
20260905225559 92 132 0.0 5.2 0.00 0.00 0.00 60 1010.7
20260905225100 92 69 0.0 5.2 0.00 0.00 0.00 61 1010.9
20260905224608 93 0 0.0 1.7 0.00 0.00 0.00 60 1011.0
20260905224059 93 38 0.0 1.7 0.00 0.00 0.00 59 1010.9
20260905223559 94 0 0.0 1.7 0.00 0.00 0.00 57 1011.0
20260905223106 94 0 0.0 1.7 0.00 0.00 0.00 57 1011.0
20260905222600 94 153 0.0 2.6 0.00 0.00 0.00 56 1010.9
20260905222100 93 88 0.0 3.5 0.00 0.00 0.00 56 1011.0
20260905221559 93 0 0.9 3.5 0.00 0.00 0.00 55 1010.9
20260905221100 93 12 0.9 4.3 0.00 0.00 0.00 55 1010.9
20260905220559 93 66 0.0 4.3 0.00 0.00 0.00 53 1011.0
20260905220121 93 42 0.9 2.6 0.00 0.00 0.00 55 1011.0
20260905215600 94 0 0.9 3.5 0.00 0.00 0.00 55 1011.0
20260905215059 93 0 0.9 4.3 0.00 0.00 0.00 57 1010.9
20260905214605 93 43 1.7 4.3 0.00 0.00 0.00 56 1010.8
20260905214059 93 55 1.7 4.3 0.00 0.00 0.00 57 1010.8
20260905213600 93 40 0.9 2.6 0.00 0.00 0.00 59 1010.8
20260905213108 93 51 0.0 2.6 0.00 0.00 0.00 57 1010.8
20260905212559 92 0 0.0 5.2 0.00 0.00 0.00 57 1010.9
20260905212059 92 78 1.7 5.2 0.00 0.00 0.00 60 1010.8
20260905211604 92 59 1.7 6.1 0.00 0.00 0.00 59 1010.8
20260905211100 92 36 2.6 8.7 0.00 0.00 0.00 60 1010.9
20260905210600 93 26 3.5 8.7 0.00 0.00 0.00 58 1011.1
20260905210104 94 17 3.5 9.6 0.00 0.00 0.00 56 1011.3
20260905205600 94 44 3.5 9.6 0.00 0.00 0.00 56 1011.1
20260905205059 94 16 0.9 3.5 0.00 0.00 0.00 57 1011.2
20260905204605 93 81 0.0 3.5 0.00 0.00 0.00 55 1011.3
20260905204102 93 0 0.0 3.5 0.00 0.00 0.00 60 1011.4
20260905203600 94 24 0.0 2.6 0.00 0.00 0.00 57 1011.4
20260905203107 94 0 0.9 6.1 0.00 0.00 0.00 54 1011.6
20260905202600 94 0 1.7 6.1 0.00 0.00 0.00 55 1011.7
20260905202100 95 49 1.7 5.2 0.00 0.00 0.00 54 1011.7
20260905201603 95 37 0.0 3.5 0.00 0.00 0.00 53 1011.8
20260905201059 95 26 1.7 3.5 0.00 0.00 0.00 53 1011.8
20260905200559 95 0 0.0 3.5 0.00 0.00 0.00 55 1011.8
20260905200100 95 0 0.0 3.5 0.00 0.00 0.00 54 1011.8
20260905195600 96 341 0.0 2.6 0.00 0.00 0.00 53 1011.9
20260905195102 96 11 0.0 2.6 0.00 0.00 0.00 55 1012.0
20260905194607 97 57 0.9 2.6 0.00 0.00 0.00 51 1012.0
20260905194101 97 61 0.9 5.2 0.00 0.00 0.00 49 1012.1
20260905193559 97 243 0.9 5.2 0.00 0.00 0.00 50 1012.3
20260905193101 97 59 1.7 4.3 0.00 0.00 0.00 49 1012.3
20260905192600 97 5 0.9 2.6 0.00 0.00 0.00 51 1012.2
20260905192102 97 12 0.0 3.5 0.00 0.00 0.00 53 1012.2
20260905191603 97 341 0.9 4.3 0.00 0.00 0.00 49 1012.3
20260905191101 98 9 1.7 4.3 0.00 0.00 0.00 47 1012.5
20260905190601 98 0 0.9 3.5 0.00 0.00 0.00 50 1012.5
20260905190113 98 0 0.9 3.5 0.00 0.00 0.00 51 1012.4
20260905185601 97 304 0.0 4.3 0.00 0.00 0.00 49 1012.5
20260905185059 97 257 1.7 4.3 0.00 0.00 0.00 48 1012.7
20260905184604 97 360 0.9 4.3 0.00 0.00 0.00 48 1012.7
20260905184056 97 171 1.7 4.3 0.00 0.00 0.00 53 1012.7
20260905183603 97 245 1.7 3.5 0.00 0.00 0.00 52 1012.8
20260905183124 97 309 0.9 2.6 0.00 0.00 0.00 50 1012.9
20260905182559 97 302 0.9 2.6 0.00 0.00 0.00 50 1013.1
20260905182100 96 267 0.0 3.5 0.00 0.00 0.00 51 1013.2
20260905181606 96 306 0.0 3.5 0.00 0.00 0.00 53 1013.4
20260905181103 96 25 0.9 3.5 0.00 0.00 0.00 55 1013.4
20260905180600 96 314 0.9 3.5 0.00 0.00 0.00 55 1013.6
20260905175559 95 360 0.9 4.3 0.00 0.00 0.00 57 1013.6
20260905175059 95 238 0.0 4.3 0.00 0.00 0.00 57 1013.7
20260905174605 95 32 0.0 2.6 0.00 0.00 0.00 57 1013.7
20260905174100 95 338 0.0 2.6 0.00 0.00 0.00 56 1013.7
20260905173559 95 272 0.9 2.6 0.00 0.00 0.00 56 1013.7
20260905173103 96 312 0.9 2.6 0.00 0.00 0.00 59 1013.8
20260905172558 95 269 0.9 2.6 0.00 0.00 0.00 58 1013.8
20260905172100 95 167 0.9 2.6 0.00 0.00 0.00 59 1013.8
20260905171605 94 34 0.0 2.6 0.00 0.00 0.00 60 1014.0
20260905171059 94 5 0.0 2.6 0.00 0.00 0.00 58 1013.9
20260905170559 94 156 0.9 3.5 0.00 0.00 0.00 58 1013.9
20260905165602 93 348 0.9 3.5 0.00 0.00 0.00 62 1014.1
20260905165059 93 246 0.9 2.6 0.00 0.00 0.00 61 1014.0
20260905164615 93 5 0.9 2.6 0.00 0.00 0.00 62 1014.0
20260905164058 92 0 0.9 2.6 0.00 0.00 0.00 62 1014.2
20260905163600 92 313 0.0 2.6 0.00 0.00 0.00 63 1014.2
20260905163106 91 0 0.9 3.5 0.00 0.00 0.00 64 1014.3
20260905162600 91 0 0.9 3.5 0.00 0.00 0.00 63 1014.3
20260905162059 91 328 0.0 2.6 0.00 0.00 0.00 63 1014.4
20260905161613 91 0 0.0 2.6 0.00 0.00 0.00 65 1014.4
20260905161100 91 0 0.9 2.6 0.00 0.00 0.00 65 1014.4
20260905160559 90 217 0.0 2.6 0.00 0.00 0.00 66 1014.5
20260905160123 90 5 0.0 1.7 0.00 0.00 0.00 66 1014.6
20260905155559 90 5 0.9 2.6 0.00 0.00 0.00 66 1014.5
20260905155059 89 0 0.0 2.6 0.00 0.00 0.00 67 1014.6
20260905154607 89 0 0.0 1.7 0.00 0.00 0.00 69 1014.6
20260905154101 88 0 0.0 1.7 0.00 0.00 0.00 71 1014.7
20260905153558 88 0 0.0 1.7 0.00 0.00 0.00 71 1014.7
20260905153115 87 5 0.0 1.7 0.00 0.00 0.00 72 1014.7
20260905152600 87 0 0.0 1.7 0.00 0.00 0.00 72 1014.7
20260905152103 87 0 0.0 2.6 0.00 0.00 0.00 74 1014.7
20260905151609 86 0 0.0 2.6 0.00 0.00 0.00 75 1014.8
20260905151100 86 0 0.0 2.6 0.00 0.00 0.00 75 1014.8
20260905150559 85 0 0.0 3.5 0.00 0.00 0.00 76 1014.8
20260905150101 85 0 0.9 3.5 0.00 0.00 0.00 75 1014.8
20260905145556 84 156 0.9 2.6 0.00 0.00 0.00 77 1014.9
20260905145102 83 281 0.0 1.7 0.00 0.00 0.00 81 1014.9
20260905144602 82 0 0.0 0.9 0.00 0.00 0.00 82 1014.9
20260905144059 82 0 0.0 1.7 0.00 0.00 0.00 82 1014.9
20260905143559 81 0 0.0 1.7 0.00 0.00 0.00 82 1015.0
20260905143100 81 0 0.0 0.9 0.00 0.00 0.00 83 1015.0
20260905142559 81 0 0.0 0.9 0.00 0.00 0.00 82 1015.0
20260905142059 80 261 0.0 1.7 0.00 0.00 0.00 83 1014.9
20260905141559 80 261 0.0 1.7 0.00 0.00 0.00 82 1014.9
20260905141059 80 0 0.0 3.5 0.00 0.00 0.00 83 1014.9
20260905140559 80 0 0.9 3.5 0.00 0.00 0.00 83 1014.8
20260905140108 80 166 0.9 3.5 0.00 0.00 0.00 83 1014.9
20260905135559 80 165 0.9 2.6 0.00 0.00 0.00 83 1015.0
20260905135059 80 0 0.0 1.7 0.00 0.00 0.00 83 1015.0
20260905134601 80 0 0.0 2.6 0.00 0.00 0.00 83 1014.9
20260905134100 80 182 0.0 2.6 0.00 0.00 0.00 83 1014.9
20260905133600 80 195 0.0 2.6 0.00 0.00 0.00 83 1015.0
20260905133106 79 0 0.0 0.0 0.00 0.00 0.00 84 1015.0
20260905132559 79 0 0.0 0.0 0.00 0.00 0.00 84 1015.1
20260905132100 79 0 0.0 0.0 0.00 0.00 0.00 85 1015.0
20260905131610 79 0 0.0 0.0 0.00 0.00 0.00 85 1015.0
20260905131059 79 0 0.0 0.0 0.00 0.00 0.00 85 1015.1
20260905130559 78 0 0.0 0.0 0.00 0.00 0.00 86 1015.1
20260905130110 78 0 0.0 0.0 0.00 0.00 0.00 86 1015.0
20260905125559 78 0 0.0 0.0 0.00 0.00 0.00 86 1015.0
20260905125059 78 0 0.0 0.0 0.00 0.00 0.00 86 1015.1
20260905124603 77 0 0.0 0.0 0.00 0.00 0.00 87 1015.1
20260905124059 77 0 0.0 0.0 0.00 0.00 0.00 87 1015.1
20260905123559 77 0 0.0 0.0 0.00 0.00 0.00 88 1015.1
20260905123102 76 0 0.0 0.0 0.00 0.00 0.00 89 1015.0
20260905122600 76 0 0.0 0.0 0.00 0.00 0.00 90 1015.0
20260905122100 75 0 0.0 0.0 0.00 0.00 0.00 90 1015.0
20260905121602 75 0 0.0 0.0 0.00 0.00 0.00 90 1014.9
20260905121059 74 0 0.0 0.0 0.00 0.00 0.00 90 1014.9
20260905120600 74 0 0.0 0.0 0.00 0.00 0.00 90 1014.9
20260905120112 74 0 0.0 0.0 0.00 0.00 0.00 90 1014.8
20260905115601 74 0 0.0 0.0 0.00 0.00 0.00 91 1014.9
20260905115100 74 0 0.0 0.0 0.00 0.00 0.00 91 1014.7
20260905114606 74 0 0.0 0.0 0.00 0.00 0.00 91 1014.7